| time (UTC) | temp F | wind direction | speed MPH | gust MPH | rain 1hr in | rain 24hr in | rain mn in | humidity % | barometer mb |
| 20260510174520 | 82 | 246 | 1.0 | 4.0 | 0.00 | 0.00 | 0.00 | 59 | 1016.1 |
| 20260510173021 | 81 | 257 | 2.0 | 4.0 | 0.00 | 0.00 | 0.00 | 57 | 1016.3 |
| 20260510171522 | 80 | 34 | 0.0 | 5.0 | 0.00 | 0.00 | 0.00 | 64 | 1016.5 |
| 20260510170020 | 79 | 181 | 1.0 | 3.0 | 0.00 | 0.00 | 0.00 | 67 | 1016.7 |
| 20260510164523 | 80 | 171 | 1.0 | 4.0 | 0.00 | 0.00 | 0.00 | 62 | 1016.7 |
| 20260510163022 | 80 | 1 | 0.0 | 4.0 | 0.00 | 0.00 | 0.00 | 68 | 1016.7 |
| 20260510161525 | 78 | 238 | 0.0 | 3.0 | 0.00 | 0.00 | 0.00 | 72 | 1016.8 |
| 20260510160030 | 77 | 315 | 0.0 | 4.0 | 0.00 | 0.00 | 0.00 | 73 | 1016.7 |
| 20260510154523 | 76 | 204 | 0.0 | 3.0 | 0.00 | 0.00 | 0.00 | 76 | 1016.6 |
| 20260510153020 | 75 | 183 | 0.0 | 2.0 | 0.00 | 0.00 | 0.00 | 77 | 1016.6 |
| 20260510151524 | 74 | 236 | 0.0 | 2.0 | 0.00 | 0.00 | 0.00 | 82 | 1016.8 |
| 20260510150016 | 73 | 233 | 1.0 | 3.0 | 0.00 | 0.00 | 0.00 | 85 | 1016.8 |
| 20260510144515 | 72 | 274 | 0.0 | 5.0 | 0.00 | 0.00 | 0.00 | 86 | 1016.7 |
| 20260510143017 | 71 | 164 | 0.0 | 4.0 | 0.00 | 0.00 | 0.00 | 87 | 1016.6 |
| 20260510141518 | 70 | 219 | 1.0 | 4.0 | 0.00 | 0.00 | 0.00 | 89 | 1016.7 |
| 20260510140018 | 70 | 217 | 2.0 | 4.0 | 0.00 | 0.00 | 0.00 | 89 | 1016.7 |
| 20260510134517 | 69 | 237 | 1.0 | 4.0 | 0.00 | 0.00 | 0.00 | 90 | 1016.3 |
| 20260510133017 | 68 | 202 | 1.0 | 3.0 | 0.00 | 0.00 | 0.00 | 91 | 1016.2 |
| 20260510131520 | 68 | 178 | 0.0 | 0.0 | 0.00 | 0.00 | 0.00 | 91 | 1016.3 |
| 20260510130025 | 67 | 179 | 0.0 | 1.0 | 0.00 | 0.00 | 0.00 | 92 | 1016.1 |
| 20260510124519 | 66 | 179 | 0.0 | 2.0 | 0.00 | 0.00 | 0.00 | 94 | 1016.1 |
| 20260510123022 | 65 | 220 | 0.0 | 3.0 | 0.00 | 0.00 | 0.00 | 95 | 1016.0 |
| 20260510121520 | 64 | 158 | 0.0 | 0.0 | 0.00 | 0.00 | 0.00 | 98 | 1016.0 |
| 20260510120022 | 63 | 158 | 0.0 | 0.0 | 0.00 | 0.00 | 0.00 | 99 | 1015.8 |
| 20260510114530 | 61 | 158 | 0.0 | 0.0 | 0.00 | 0.00 | 0.00 | 98 | 1015.8 |
| 20260510113032 | 61 | 158 | 0.0 | 0.0 | 0.00 | 0.00 | 0.00 | 97 | 1015.5 |
| 20260510111531 | 61 | 158 | 0.0 | 0.0 | 0.00 | 0.00 | 0.00 | 97 | 1015.5 |
| 20260510110033 | 61 | 158 | 0.0 | 0.0 | 0.00 | 0.00 | 0.00 | 97 | 1015.3 |
| 20260510104523 | 61 | 158 | 0.0 | 0.0 | 0.00 | 0.00 | 0.00 | 97 | 1015.0 |
| 20260510103023 | 61 | 158 | 0.0 | 0.0 | 0.00 | 0.00 | 0.00 | 96 | 1014.8 |
| 20260510101522 | 61 | 158 | 0.0 | 0.0 | 0.00 | 0.00 | 0.00 | 96 | 1014.6 |
| 20260510100025 | 62 | 158 | 0.0 | 0.0 | 0.00 | 0.00 | 0.00 | 95 | 1014.5 |
| 20260510094531 | 62 | 158 | 0.0 | 0.0 | 0.00 | 0.00 | 0.00 | 95 | 1014.3 |
| 20260510093021 | 62 | 158 | 0.0 | 0.0 | 0.00 | 0.00 | 0.00 | 95 | 1014.2 |
| 20260510091520 | 62 | 158 | 0.0 | 0.0 | 0.00 | 0.00 | 0.00 | 94 | 1013.9 |
| 20260510090022 | 63 | 158 | 0.0 | 0.0 | 0.00 | 0.00 | 0.00 | 94 | 1013.9 |
| 20260510084525 | 63 | 158 | 0.0 | 0.0 | 0.00 | 0.00 | 0.00 | 93 | 1013.9 |
| 20260510083020 | 64 | 158 | 0.0 | 0.0 | 0.00 | 0.00 | 0.00 | 92 | 1013.6 |
| 20260510081519 | 64 | 158 | 0.0 | 0.0 | 0.00 | 0.00 | 0.00 | 91 | 1013.6 |
| 20260510080027 | 64 | 158 | 0.0 | 0.0 | 0.00 | 0.00 | 0.00 | 92 | 1013.7 |
| 20260510074527 | 65 | 158 | 0.0 | 0.0 | 0.00 | 0.00 | 0.00 | 91 | 1013.7 |
| 20260510073018 | 65 | 158 | 0.0 | 0.0 | 0.00 | 0.00 | 0.00 | 90 | 1013.6 |
| 20260510071526 | 65 | 158 | 0.0 | 1.0 | 0.00 | 0.00 | 0.00 | 90 | 1013.6 |
| 20260510070024 | 65 | 158 | 0.0 | 0.0 | 0.00 | 0.00 | 0.00 | 89 | 1013.8 |
| 20260510064521 | 65 | 158 | 0.0 | 0.0 | 0.00 | 0.00 | 0.00 | 88 | 1013.8 |
| 20260510063023 | 66 | 158 | 0.0 | 0.0 | 0.00 | 0.00 | 0.00 | 87 | 1013.6 |
| 20260510061523 | 66 | 158 | 0.0 | 0.0 | 0.00 | 0.00 | 0.00 | 86 | 1013.3 |
| 20260510060007 | 66 | 157 | 0.0 | 0.0 | 0.00 | 0.00 | 0.00 | 85 | 1013.2 |
| 20260510054526 | 66 | 158 | 0.0 | 0.0 | 0.00 | 0.00 | 0.00 | 84 | 1013.3 |
| 20260510053005 | 66 | 158 | 0.0 | 0.0 | 0.00 | 0.00 | 0.00 | 81 | 1013.5 |
| 20260510051511 | 65 | 158 | 0.0 | 2.0 | 0.00 | 0.00 | 0.00 | 81 | 1013.3 |
| 20260510050009 | 65 | 157 | 0.0 | 0.0 | 0.00 | 0.00 | 0.00 | 80 | 1013.2 |
| 20260510044512 | 65 | 157 | 0.0 | 0.0 | 0.00 | 0.00 | 0.00 | 80 | 1013.2 |
| 20260510043010 | 66 | 157 | 0.0 | 0.0 | 0.00 | 0.00 | 0.00 | 79 | 1013.1 |
| 20260510041509 | 66 | 157 | 0.0 | 0.0 | 0.00 | 0.00 | 0.00 | 76 | 1013.2 |
| 20260510040011 | 67 | 157 | 0.0 | 6.0 | 0.00 | 0.00 | 0.00 | 76 | 1013.2 |
| 20260510034511 | 67 | 39 | 0.0 | 0.0 | 0.00 | 0.00 | 0.00 | 74 | 1013.2 |
| 20260510033014 | 68 | 39 | 0.0 | 0.0 | 0.00 | 0.00 | 0.00 | 73 | 1013.2 |
| 20260510031514 | 69 | 39 | 0.0 | 0.0 | 0.00 | 0.00 | 0.00 | 70 | 1013.2 |
| 20260510030011 | 69 | 39 | 0.0 | 0.0 | 0.00 | 0.00 | 0.00 | 70 | 1013.1 |
| 20260510024517 | 70 | 39 | 0.0 | 0.0 | 0.00 | 0.00 | 0.00 | 68 | 1013.1 |
| 20260510023014 | 70 | 39 | 0.0 | 0.0 | 0.00 | 0.00 | 0.00 | 67 | 1013.0 |
| 20260510021518 | 71 | 39 | 0.0 | 0.0 | 0.00 | 0.00 | 0.00 | 66 | 1012.9 |
| 20260510020017 | 71 | 39 | 0.0 | 0.0 | 0.00 | 0.00 | 0.00 | 66 | 1012.7 |
| 20260510014517 | 71 | 39 | 0.0 | 0.0 | 0.00 | 0.00 | 0.00 | 65 | 1012.4 |
| 20260510013017 | 72 | 39 | 0.0 | 1.0 | 0.00 | 0.00 | 0.00 | 64 | 1012.1 |
| 20260510011516 | 73 | 39 | 0.0 | 1.0 | 0.00 | 0.00 | 0.00 | 62 | 1011.7 |
| 20260510010016 | 74 | 39 | 0.0 | 0.0 | 0.00 | 0.00 | 0.00 | 59 | 1011.4 |
| 20260510004519 | 76 | 39 | 0.0 | 0.0 | 0.00 | 0.00 | 0.00 | 55 | 1011.3 |
| 20260510003018 | 78 | 39 | 0.0 | 0.0 | 0.00 | 0.00 | 0.00 | 51 | 1010.9 |
| 20260510001533 | 79 | 39 | 0.0 | 1.0 | 0.00 | 0.00 | 0.00 | 46 | 1010.9 |
| 20260510000019 | 80 | 36 | 0.0 | 1.0 | 0.00 | 0.00 | 0.00 | 46 | 1010.8 |
| 20260509234518 | 81 | 36 | 0.0 | 3.0 | 0.00 | 0.00 | 0.00 | 44 | 1010.5 |
| 20260509233020 | 81 | 37 | 0.0 | 3.0 | 0.00 | 0.00 | 0.00 | 44 | 1010.6 |
| 20260509231519 | 83 | 36 | 0.0 | 4.0 | 0.00 | 0.00 | 0.00 | 40 | 1010.5 |
| 20260509230021 | 83 | 314 | 1.0 | 3.0 | 0.00 | 0.00 | 0.00 | 41 | 1010.4 |
| 20260509224522 | 82 | 12 | 0.0 | 3.0 | 0.00 | 0.00 | 0.00 | 40 | 1010.3 |
| 20260509223021 | 82 | 42 | 1.0 | 5.0 | 0.00 | 0.00 | 0.00 | 41 | 1010.3 |
| 20260509221527 | 84 | 327 | 1.0 | 4.0 | 0.00 | 0.00 | 0.00 | 41 | 1010.1 |
| 20260509220026 | 84 | 152 | 0.0 | 3.0 | 0.00 | 0.00 | 0.00 | 41 | 1010.3 |
| 20260509214534 | 85 | 356 | 2.0 | 3.0 | 0.00 | 0.00 | 0.00 | 40 | 1010.4 |
| 20260509213025 | 84 | 214 | 0.0 | 4.0 | 0.00 | 0.00 | 0.00 | 42 | 1010.4 |
| 20260509211526 | 83 | 165 | 1.0 | 4.0 | 0.00 | 0.00 | 0.00 | 42 | 1010.6 |
| 20260509210009 | 83 | 14 | 1.0 | 3.0 | 0.00 | 0.00 | 0.00 | 38 | 1010.5 |
| 20260509204508 | 82 | 39 | 1.0 | 4.0 | 0.00 | 0.00 | 0.00 | 43 | 1010.8 |
| 20260509203025 | 82 | 57 | 1.0 | 4.0 | 0.00 | 0.00 | 0.00 | 40 | 1010.8 |
| 20260509201508 | 82 | 30 | 0.0 | 4.0 | 0.00 | 0.00 | 0.00 | 39 | 1010.9 |
| 20260509200012 | 81 | 68 | 0.0 | 7.0 | 0.00 | 0.00 | 0.00 | 43 | 1011.0 |
| 20260509194512 | 82 | 203 | 1.0 | 5.0 | 0.00 | 0.00 | 0.00 | 42 | 1010.9 |
| 20260509193013 | 82 | 214 | 1.0 | 4.0 | 0.00 | 0.00 | 0.00 | 46 | 1011.1 |
| 20260509191514 | 81 | 240 | 2.0 | 4.0 | 0.00 | 0.00 | 0.00 | 44 | 1011.2 |
| 20260509190016 | 81 | 160 | 0.0 | 3.0 | 0.00 | 0.00 | 0.00 | 44 | 1011.1 |
| 20260509184514 | 80 | 252 | 2.0 | 6.0 | 0.00 | 0.00 | 0.00 | 46 | 1011.2 |
| 20260509183013 | 81 | 243 | 0.0 | 7.0 | 0.00 | 0.00 | 0.00 | 49 | 1011.3 |
| 20260509181517 | 81 | 54 | 1.0 | 4.0 | 0.00 | 0.00 | 0.00 | 47 | 1011.5 |
| 20260509180013 | 80 | 125 | 0.0 | 4.0 | 0.00 | 0.00 | 0.00 | 52 | 1011.7 |